Regional Weather Roundup
Issued by NWS

Home | Current Version | Previous Version | Graphics & Text | Print | Product List | Glossary On
Versions: 1 2 3 4 5 6 7 8 9 10 11 12 13 14 15 16 17 18 19 20 21 22 23 24 25 26 27 28 29 30 31 32 33 34 35 36 37 38 39 40 41 42 43 44 45 46 47 48 49 50
000
ASUS45 KBOU 182207
RWRCO

WEATHER ROUNDUP FOR COLORADO
NATIONAL WEATHER SERVICE DENVER/BOULDER CO
400 PM MDT THU SEP 18 2014

NOTE: "FAIR" INDICATES FEW OR NO CLOUDS BELOW 12000 FEET WITH NO
SIGNIFICANT WEATHER AND/OR OBSTRUCTIONS TO VISIBILITY.

COZ001>005-013-030-031-182300-
...NORTHWEST COLORADO...

CITY           SKY/WX    TMP DP  RH WIND       PRES   REMARKS
CRAIG          MOSUNNY   86  37  17 MISG      29.99F
HAYDEN         MOSUNNY   82  34  17 NE3       30.03F
MEEKER         SUNNY     83  30  14 VRB5      30.01F
MOUNT WERNER   NOT AVBL
STEAMBOAT SPGS MOSUNNY   81  32  17 CALM      30.05F
WALDEN         SUNNY     75  25  15 W7        30.15F
$$

COZ006>008-011-182300-
...WEST CENTRAL VALLEYS...

CITY           SKY/WX    TMP DP  RH WIND       PRES   REMARKS
GRAND JUNCTION SUNNY     86  46  24 W8        29.90F
MONTROSE       SUNNY     86  37  17 NW10      29.98F
EAGLE          MOSUNNY   82  34  17 SW8       30.03F
RIFLE          SUNNY     86  35  16 W7        29.94F
DELTA          SUNNY     91  31  11 NE3       29.92F
NUCLA          SUNNY     82  36  18 NW3       30.03F
$$

COZ017>023-064>068-182300-
...SOUTHWEST COLORADO...

CITY           SKY/WX    TMP DP  RH WIND       PRES   REMARKS
DURANGO        SUNNY     82  29  14 VRB6G17   30.04F
CORTEZ         SUNNY     82  41  23 W8        30.01F
PAGOSA SPRINGS SUNNY     81  25  12 SW10      30.11F
TELLURIDE      NOT AVBL
WOLF CREEK PAS MOSUNNY   59  28  31 SE3       30.45F
$$

COZ009-010-012-014-032>034-037-058>063-182300-
...CENTRAL COLORADO...

CITY           SKY/WX    TMP DP  RH WIND       PRES   REMARKS
ASPEN          MOSUNNY   80  33  18 N9        30.10F
BUENA VISTA    MOSUNNY   80  22  12 S7G16     30.14F
COPPER MTN     MOSUNNY   68  10  10 SE7       30.48F
BERTHOUD PASS  CLOUDY    50  48  93 E20       30.54S
COTTONWOOD PAS MOSUNNY   75   9   7 SE7G18    30.31S
GUNNISON       SUNNY     79  28  15 E10G17    30.12F
KREMMLING      SUNNY     81  21  11 CALM      30.09F
LEADVILLE      MOSUNNY   69  19  15 S10G20    30.28F
SALIDA         MOSUNNY   83  27  13 E7G16     30.17F
SUNLIGHT       MOSUNNY   63  36  36 NW5       30.39F
WILKERSON PASS NOT AVBL
$$

COZ069>075-182300-
...SAN LUIS VALLEY/SANGRE DE CRISTO MOUNTAINS...

CITY           SKY/WX    TMP DP  RH WIND       PRES   REMARKS
ALAMOSA        SUNNY     80  28  15 VRB5      30.10F
LA VETA PASS   SUNNY     64  28  25 NE15G22   30.34F
SAGUACHE       NOT AVBL
$$

COZ035-036-038>040-182300-
...NORTHERN COLORADO FRONT RANGE...

CITY           SKY/WX    TMP DP  RH WIND       PRES   REMARKS
DENVER INTL AP MOSUNNY   89  33  13 W5        29.96F
DMNS CITY PARK   N/A     89  33  13 E9        29.93F
AURORA         MOSUNNY   87  36  16 SE2       29.98F
FRONT RANGE AP NOT AVBL
ERIE MUNI ARPT SUNNY     90  28  11 SE9       29.93F
BOULDER MUN AP SUNNY     88  36  15 E3        29.94F
CENTENNIAL     MOSUNNY   86  30  13 SE7       29.99F
BROOMFIELD     MOSUNNY   90  32  12 VRB3      29.98F
FORT COLLINS   SUNNY     90  41  18 E8        29.91F
LONGMONT       SUNNY     92  31  11 SE3       29.94F
$$

COZ041-046-047-076>085-087-088-182300-
...PIKES PEAK/PALMER DIVIDE AND SOUTHERN FOOTHILLS...

CITY           SKY/WX    TMP DP  RH WIND       PRES   REMARKS
COLO. SPRINGS  MOSUNNY   85  30  13 SE21      30.06F
A. F. ACADEMY  SUNNY     83  30  14 S15G22    30.06S
ELLICOTT       NOT AVBL
FALCON         SUNNY     81  29  14 SE14G21   30.12F
FORT CARSON    SUNNY     85  36  17 SE16      30.03F
LIMON          SUNNY     86  31  13 S12       29.99F
MONUMENT HILL  SUNNY     81  30  16 S15       30.10F
TRINIDAD       SUNNY     85  29  13 SE14G25   30.03F
$$

COZ042>045-048>051-090-091-182300-
...NORTHEAST COLORADO...

CITY           SKY/WX    TMP DP  RH WIND       PRES   REMARKS
GREELEY ARPT   SUNNY     91  39  16 S7        29.92F
AKRON          SUNNY     88  50  27 SE8       29.94F
BURLINGTON     SUNNY     91  37  15 S14       29.93F
WRAY           SUNNY     89  53  29 SE9       29.90F
STERLING       SUNNY     93  52  24 S8        29.88F
HOLYOKE        SUNNY     81  61  50 SE12      29.92S
FORT MORGAN    SUNNY     90  41  17 SE8       29.92F
$$

COZ086-089-092>099-182300-
...SOUTHEAST COLORADO...

CITY           SKY/WX    TMP DP  RH WIND       PRES   REMARKS
PUEBLO         SUNNY     90  31  12 SE15      29.93F
LA JUNTA       SUNNY     92  37  14 S10G20    29.92F
LAMAR          SUNNY     91  44  19 S20G26    29.89F
SPRINGFIELD      N/A     82  55  39 S20G29    29.99S
$$


USA.gov is the U.S. government's official web portal to all federal, state and local government web resources and services.